User: anonymous   Login
Location: Caltech
(34.1382°N, 118.1253°W)
Time: 23:27:21
(UTC-07:00)
Language:

ADEOS II - Orbit

View from above orbital plane
View from above orbital plane
View from above satellite
View from above satellite

Ground track
Ground track

The orbit data is extracted from the following two-line orbital elements,

1 27597U 02056A   15216.07947468  .00000097  00000-0  56451-4 0  9994
2 27597 098.2895 207.0784 0001589 124.9985 277.2156 14.27112465657980
Epoch (UTC): 04 August 2015 01:54:26
Eccentricity: 0.0001589
inclination: 98.2895°
perigee height: 800 km
apogee height: 802 km
right ascension of ascending node: 207.0784°
argument of perigee: 124.9985°
revolutions per day: 14.27112465
mean anomaly at epoch: 277.2156°
orbit number at epoch: 65798

The dashed part of the orbit path shows where the satellite is in the earth's shadow,  

DLR